Time,TemperatureF,DewpointF,PressureIn,WindDirection,WindDirectionDegrees,WindSpeedMPH,WindSpeedGustMPH,Humidity,HourlyPrecipIn,Conditions,Clouds,dailyrainin,SoftwareType,DateUTC
2013-07-11 00:12:00,72.2,71.0,29.87,SW,228,4.0,10.0,96,0.00,,,0.00,weatherlink.com 1.10,2013-07-11 04:12:00,
2013-07-11 00:27:00,71.6,71.0,29.87,WSW,243,4.0,8.0,97,0.00,,,0.00,weatherlink.com 1.10,2013-07-11 04:27:00,
2013-07-11 00:42:00,71.2,70.0,29.86,West,273,2.0,5.0,97,0.00,,,0.00,weatherlink.com 1.10,2013-07-11 04:42:00,
2013-07-11 00:57:00,71.0,70.0,29.86,SSW,198,2.0,2.0,97,0.00,,,0.00,weatherlink.com 1.10,2013-07-11 04:57:00,
2013-07-11 01:12:00,70.8,70.0,29.86,SW,228,1.0,3.0,97,0.00,,,0.00,weatherlink.com 1.10,2013-07-11 05:12:00,
2013-07-11 01:27:00,70.8,70.0,29.86,SW,236,0.0,2.0,97,0.00,,,0.00,weatherlink.com 1.10,2013-07-11 05:27:00,
2013-07-11 01:42:00,70.9,70.0,29.86,West,263,0.0,2.0,98,0.00,,,0.00,weatherlink.com 1.10,2013-07-11 05:42:00,
2013-07-11 01:57:00,71.2,71.0,29.85,SW,219,5.0,5.0,98,0.00,,,0.00,weatherlink.com 1.10,2013-07-11 05:57:00,
2013-07-11 02:12:00,71.0,70.0,29.86,West,266,2.0,4.0,97,0.00,,,0.00,weatherlink.com 1.10,2013-07-11 06:12:00,
2013-07-11 02:27:00,71.2,70.0,29.85,West,259,4.0,5.0,97,0.00,,,0.00,weatherlink.com 1.10,2013-07-11 06:27:00,
2013-07-11 02:42:00,71.3,70.0,29.86,WSW,248,4.0,7.0,97,0.00,,,0.00,weatherlink.com 1.10,2013-07-11 06:42:00,
2013-07-11 02:58:00,71.4,71.0,29.86,SSW,197,3.0,7.0,97,0.00,,,0.00,weatherlink.com 1.10,2013-07-11 06:58:00,
2013-07-11 03:13:00,71.6,71.0,29.86,WSW,256,2.0,7.0,97,0.00,,,0.00,weatherlink.com 1.10,2013-07-11 07:13:00,
2013-07-11 03:28:00,71.6,71.0,29.85,West,270,0.0,4.0,97,0.00,,,0.00,weatherlink.com 1.10,2013-07-11 07:28:00,
2013-07-11 03:43:00,71.8,71.0,29.85,WSW,246,3.0,6.0,97,0.00,,,0.00,weatherlink.com 1.10,2013-07-11 07:43:00,
2013-07-11 03:58:00,71.9,71.0,29.85,WSW,253,0.0,5.0,98,0.00,,,0.00,weatherlink.com 1.10,2013-07-11 07:58:00,
2013-07-11 04:13:00,72.1,71.0,29.85,SSW,207,3.0,5.0,97,0.00,,,0.00,weatherlink.com 1.10,2013-07-11 08:13:00,
2013-07-11 04:28:00,70.5,70.0,29.85,SW,226,1.0,5.0,97,0.00,,,0.00,weatherlink.com 1.10,2013-07-11 08:28:00,
2013-07-11 04:43:00,70.4,70.0,29.85,WSW,240,1.0,4.0,98,0.00,,,0.00,weatherlink.com 1.10,2013-07-11 08:43:00,
2013-07-11 04:58:00,70.7,70.0,29.85,West,270,0.0,4.0,98,0.00,,,0.00,weatherlink.com 1.10,2013-07-11 08:58:00,
2013-07-11 05:13:00,70.9,70.0,29.85,SW,232,2.0,2.0,98,0.00,,,0.00,weatherlink.com 1.10,2013-07-11 09:13:00,
2013-07-11 05:28:00,71.1,71.0,29.85,SW,232,0.0,2.0,98,0.00,,,0.00,weatherlink.com 1.10,2013-07-11 09:28:00,
2013-07-11 05:43:00,70.8,70.0,29.86,SSW,208,2.0,3.0,98,0.00,,,0.00,weatherlink.com 1.10,2013-07-11 09:43:00,
2013-07-11 05:58:00,70.5,70.0,29.86,SW,236,1.0,4.0,98,0.00,,,0.00,weatherlink.com 1.10,2013-07-11 09:58:00,
2013-07-11 06:13:00,70.6,70.0,29.87,West,273,0.0,2.0,98,0.00,,,0.00,weatherlink.com 1.10,2013-07-11 10:13:00,
2013-07-11 06:28:00,70.6,70.0,29.87,South,176,1.0,4.0,98,0.00,,,0.00,weatherlink.com 1.10,2013-07-11 10:28:00,
2013-07-11 06:43:00,70.3,70.0,29.88,WNW,287,1.0,4.0,98,0.00,,,0.00,weatherlink.com 1.10,2013-07-11 10:43:00,
2013-07-11 06:58:00,71.9,72.0,29.89,West,264,5.0,11.0,99,0.22,,,0.22,weatherlink.com 1.10,2013-07-11 10:58:00,
2013-07-11 07:13:00,72.1,71.0,29.88,WSW,239,5.0,8.0,97,0.24,,,0.24,weatherlink.com 1.10,2013-07-11 11:13:00,
2013-07-11 07:28:00,71.7,71.0,29.88,NW,307,2.0,7.0,97,0.24,,,0.24,weatherlink.com 1.10,2013-07-11 11:28:00,
2013-07-11 07:43:00,71.8,71.0,29.89,West,267,3.0,3.0,98,0.24,,,0.24,weatherlink.com 1.10,2013-07-11 11:43:00,
2013-07-11 07:58:00,72.4,72.0,29.90,WSW,246,4.0,6.0,97,0.02,,,0.24,weatherlink.com 1.10,2013-07-11 11:58:00,
2013-07-11 08:13:00,72.4,72.0,29.89,WSW,240,4.0,7.0,97,0.00,,,0.24,weatherlink.com 1.10,2013-07-11 12:13:00,
2013-07-11 08:28:00,72.8,72.0,29.89,SW,219,1.0,6.0,96,0.00,,,0.24,weatherlink.com 1.10,2013-07-11 12:28:00,
2013-07-11 08:43:00,73.6,72.0,29.89,WSW,245,5.0,5.0,96,0.00,,,0.24,weatherlink.com 1.10,2013-07-11 12:43:00,
2013-07-11 09:13:00,74.0,73.0,29.90,West,266,6.0,7.0,95,0.00,,,0.24,weatherlink.com 1.10,2013-07-11 13:13:00,
2013-07-11 09:28:00,73.9,72.0,29.92,WNW,296,15.0,21.0,95,0.01,,,0.25,weatherlink.com 1.10,2013-07-11 13:28:00,
2013-07-11 09:43:00,72.9,70.0,29.90,NW,319,5.0,15.0,91,0.01,,,0.25,weatherlink.com 1.10,2013-07-11 13:43:00,
2013-07-11 09:58:00,72.6,70.0,29.90,WNW,284,1.0,8.0,92,0.01,,,0.25,weatherlink.com 1.10,2013-07-11 13:58:00,
2013-07-11 10:13:00,72.9,70.0,29.90,WSW,240,4.0,5.0,91,0.01,,,0.25,weatherlink.com 1.10,2013-07-11 14:13:00,
2013-07-11 10:28:00,72.3,69.0,29.90,SW,221,4.0,6.0,90,0.00,,,0.25,weatherlink.com 1.10,2013-07-11 14:28:00,
2013-07-11 10:43:00,72.7,69.0,29.89,South,190,1.0,4.0,89,0.00,,,0.25,weatherlink.com 1.10,2013-07-11 14:43:00,
2013-07-11 10:58:00,73.3,70.0,29.89,SSW,205,1.0,3.0,88,0.00,,,0.25,weatherlink.com 1.10,2013-07-11 14:58:00,
2013-07-11 11:13:00,74.5,70.0,29.89,South,186,3.0,3.0,86,0.00,,,0.25,weatherlink.com 1.10,2013-07-11 15:13:00,
2013-07-11 11:28:00,74.4,70.0,29.90,SSW,204,1.0,3.0,86,0.00,,,0.25,weatherlink.com 1.10,2013-07-11 15:28:00,
2013-07-11 11:43:00,74.7,70.0,29.90,SE,126,2.0,3.0,85,0.00,,,0.25,weatherlink.com 1.10,2013-07-11 15:43:00,
2013-07-11 12:13:00,73.7,70.0,29.91,SSW,193,1.0,3.0,89,0.00,,,0.25,weatherlink.com 1.10,2013-07-11 16:13:00,
2013-07-11 12:28:00,74.3,70.0,29.91,SE,137,1.0,3.0,87,0.00,,,0.25,weatherlink.com 1.10,2013-07-11 16:28:00,
2013-07-11 12:43:00,72.5,70.0,29.91,SE,146,2.0,4.0,90,0.00,,,0.25,weatherlink.com 1.10,2013-07-11 16:43:00,
2013-07-11 12:58:00,72.7,70.0,29.90,ESE,110,1.0,2.0,92,0.00,,,0.25,weatherlink.com 1.10,2013-07-11 16:58:00,
2013-07-11 13:13:00,72.5,70.0,29.89,East,95,1.0,2.0,92,0.01,,,0.26,weatherlink.com 1.10,2013-07-11 17:13:00,
2013-07-11 13:29:00,72.6,71.0,29.89,South,170,1.0,4.0,94,0.01,,,0.26,weatherlink.com 1.10,2013-07-11 17:29:00,
2013-07-11 14:14:00,72.9,71.0,29.89,ESE,105,2.0,2.0,95,0.00,,,0.26,weatherlink.com 1.10,2013-07-11 18:14:00,
2013-07-11 14:29:00,72.3,71.0,29.89,SSW,193,3.0,4.0,94,0.00,,,0.26,weatherlink.com 1.10,2013-07-11 18:29:00,
2013-07-11 14:59:00,72.0,70.0,29.89,South,187,4.0,4.0,94,0.00,,,0.26,weatherlink.com 1.10,2013-07-11 18:59:00,
2013-07-11 15:14:00,72.1,70.0,29.89,SSW,203,5.0,6.0,94,0.00,,,0.26,weatherlink.com 1.10,2013-07-11 19:14:00,
2013-07-11 15:29:00,72.9,71.0,29.88,SSW,197,3.0,4.0,95,0.00,,,0.26,weatherlink.com 1.10,2013-07-11 19:29:00,
2013-07-11 15:44:00,72.2,71.0,29.88,WSW,252,4.0,6.0,95,0.00,,,0.26,weatherlink.com 1.10,2013-07-11 19:44:00,
2013-07-11 15:59:00,71.7,70.0,29.89,SW,221,4.0,6.0,95,0.00,,,0.26,weatherlink.com 1.10,2013-07-11 19:59:00,
2013-07-11 16:14:00,71.4,70.0,29.88,SW,225,3.0,5.0,96,0.00,,,0.26,weatherlink.com 1.10,2013-07-11 20:14:00,
2013-07-11 16:29:00,71.6,71.0,29.89,SSE,159,2.0,5.0,97,0.00,,,0.26,weatherlink.com 1.10,2013-07-11 20:29:00,
2013-07-11 16:45:00,71.7,71.0,29.89,SSW,210,2.0,6.0,97,0.00,,,0.26,weatherlink.com 1.10,2013-07-11 20:45:00,
2013-07-11 16:59:00,72.1,71.0,29.89,SSW,207,1.0,6.0,96,0.00,,,0.26,weatherlink.com 1.10,2013-07-11 20:59:00,
2013-07-11 17:14:00,72.8,71.0,29.89,SW,235,2.0,5.0,95,0.00,,,0.26,weatherlink.com 1.10,2013-07-11 21:14:00,
2013-07-11 17:29:00,72.2,70.0,29.89,SW,215,3.0,6.0,94,0.00,,,0.26,weatherlink.com 1.10,2013-07-11 21:29:00,
2013-07-11 17:44:00,71.5,70.0,29.89,SW,236,2.0,3.0,96,0.00,,,0.26,weatherlink.com 1.10,2013-07-11 21:44:00,
2013-07-11 17:59:00,71.6,70.0,29.89,SW,229,1.0,3.0,96,0.00,,,0.26,weatherlink.com 1.10,2013-07-11 21:59:00,
2013-07-11 18:14:00,72.5,72.0,29.89,SW,225,0.0,1.0,97,0.00,,,0.26,weatherlink.com 1.10,2013-07-11 22:14:00,
2013-07-11 18:29:00,72.0,71.0,29.90,South,186,1.0,3.0,95,0.00,,,0.26,weatherlink.com 1.10,2013-07-11 22:29:00,
2013-07-11 18:44:00,72.1,71.0,29.91,WSW,238,2.0,3.0,96,0.00,,,0.26,weatherlink.com 1.10,2013-07-11 22:44:00,
2013-07-11 18:59:00,72.1,71.0,29.91,WSW,246,2.0,4.0,96,0.00,,,0.26,weatherlink.com 1.10,2013-07-11 22:59:00,
2013-07-11 19:14:00,71.8,71.0,29.91,SSW,212,3.0,5.0,96,0.00,,,0.26,weatherlink.com 1.10,2013-07-11 23:14:00,
2013-07-11 19:44:00,72.0,71.0,29.92,SW,229,1.0,3.0,97,0.00,,,0.26,weatherlink.com 1.10,2013-07-11 23:44:00,
2013-07-11 19:59:00,72.4,72.0,29.92,WSW,248,2.0,3.0,97,0.00,,,0.26,weatherlink.com 1.10,2013-07-11 23:59:00,
2013-07-11 20:29:00,71.9,71.0,29.92,WSW,249,0.0,0.0,97,0.00,,,0.26,weatherlink.com 1.10,2013-07-12 00:29:00,
2013-07-11 20:44:00,71.7,71.0,29.93,WNW,290,2.0,3.0,97,0.00,,,0.26,weatherlink.com 1.10,2013-07-12 00:44:00,
2013-07-11 20:59:00,71.4,71.0,29.93,West,276,0.0,0.0,97,0.00,,,0.26,weatherlink.com 1.10,2013-07-12 00:59:00,
2013-07-11 21:14:00,71.2,70.0,29.93,West,274,0.0,0.0,97,0.00,,,0.26,weatherlink.com 1.10,2013-07-12 01:14:00,
2013-07-11 21:44:00,70.7,70.0,29.93,SW,228,0.0,0.0,98,0.00,,,0.26,weatherlink.com 1.10,2013-07-12 01:44:00,
2013-07-11 21:59:00,70.8,70.0,29.93,SW,228,0.0,0.0,98,0.00,,,0.26,weatherlink.com 1.10,2013-07-12 01:59:00,
2013-07-11 22:14:00,70.2,69.0,29.94,SW,217,1.0,1.0,97,0.00,,,0.26,weatherlink.com 1.10,2013-07-12 02:14:00,
2013-07-11 22:44:00,70.1,70.0,29.94,West,260,0.0,1.0,98,0.00,,,0.26,weatherlink.com 1.10,2013-07-12 02:44:00,
2013-07-11 22:59:00,69.7,69.0,29.94,WSW,240,0.0,1.0,98,0.00,,,0.26,weatherlink.com 1.10,2013-07-12 02:59:00,
2013-07-11 23:14:00,69.3,69.0,29.94,WSW,239,1.0,1.0,98,0.00,,,0.26,weatherlink.com 1.10,2013-07-12 03:14:00,
2013-07-11 23:29:00,70.3,70.0,29.95,WNW,297,1.0,2.0,99,0.00,,,0.26,weatherlink.com 1.10,2013-07-12 03:29:00,
2013-07-11 23:44:00,70.5,70.0,29.95,WNW,295,2.0,3.0,99,0.00,,,0.26,weatherlink.com 1.10,2013-07-12 03:44:00,
2013-07-11 23:59:00,70.6,70.0,29.94,NW,314,0.0,3.0,98,0.00,,,0.26,weatherlink.com 1.10,2013-07-12 03:59:00,